• In Slovakia
  • List of Countries
  • For 7 days
  • Water Temperature
  • Satellite Maps
  • Weather Map
  • Weather Widgets
  • user-avatar
    Login

    Hourly Weather Bachledova dolina

    Today, 18 June, Monday

    Time Temperature Precipitation Wind Pressure Humidity
    00:00 +12°C° 0 mm 1 mps 678 mmHg 90%
    01:00 +11°C° 0 mm 1 mps 678 mmHg 89%
    02:00 +11°C° 0 mm 1 mps 678 mmHg 89%
    03:00 +11°C° 0 mm 1 mps 678 mmHg 88%
    04:00 +11°C° 0 mm 1 mps 678 mmHg 88%
    05:00 +12°C° 0 mm 2 mps 679 mmHg 84%
    06:00 +14°C° 0 mm 2 mps 679 mmHg 80%
    07:00 +16°C° 0 mm 2 mps 680 mmHg 76%
    08:00 +16°C° 0.1 mm 2 mps 680 mmHg 76%
    09:00 +16°C° 0.1 mm 2 mps 680 mmHg 76%
    10:00 +16°C° 0.1 mm 2 mps 680 mmHg 76%
    11:00 +17°C° 0.1 mm 3 mps 680 mmHg 73%
    12:00 +19°C° 0.1 mm 3 mps 680 mmHg 69%
    13:00 +20°C° 0.1 mm 3 mps 681 mmHg 65%
    14:00 +19°C° 0.4 mm 4 mps 681 mmHg 70%
    15:00 +19°C° 0.4 mm 4 mps 681 mmHg 74%
    16:00 +19°C° 0.4 mm 4 mps 680 mmHg 79%
    17:00 +18°C° 0.4 mm 3 mps 680 mmHg 83%
    18:00 +17°C° 0.4 mm 3 mps 680 mmHg 87%
    19:00 +16°C° 0.4 mm 2 mps 680 mmHg 91%
    20:00 +15°C° 0.1 mm 2 mps 680 mmHg 92%
    21:00 +14°C° 0.1 mm 2 mps 681 mmHg 94%
    22:00 +13°C° 0.1 mm 2 mps 681 mmHg 95%
    23:00 +13°C° 0 mm 2 mps 681 mmHg 95%

    Tomorrow, 19 June, Tuesday

    Time Temperature Precipitation Wind Pressure Humidity
    00:00 +13°C° 0 mm 2 mps 681 mmHg 96%
    01:00 +13°C° 0 mm 2 mps 681 mmHg 96%
    02:00 +13°C° 0 mm 2 mps 681 mmHg 96%
    03:00 +13°C° 0 mm 2 mps 681 mmHg 96%
    04:00 +13°C° 0 mm 2 mps 682 mmHg 96%
    05:00 +14°C° 0 mm 2 mps 682 mmHg 92%
    06:00 +15°C° 0 mm 2 mps 683 mmHg 87%
    07:00 +16°C° 0 mm 3 mps 683 mmHg 82%
    08:00 +17°C° 0 mm 3 mps 684 mmHg 75%
    09:00 +19°C° 0 mm 3 mps 684 mmHg 68%
    10:00 +20°C° 0 mm 3 mps 684 mmHg 61%
    11:00 +21°C° 0 mm 3 mps 684 mmHg 59%
    12:00 +21°C° 0 mm 3 mps 684 mmHg 57%
    13:00 +22°C° 0 mm 3 mps 684 mmHg 56%
    14:00 +22°C° 0 mm 3 mps 684 mmHg 57%
    15:00 +22°C° 0 mm 3 mps 684 mmHg 58%
    16:00 +21°C° 0 mm 3 mps 684 mmHg 60%
    17:00 +20°C° 0 mm 2 mps 684 mmHg 66%
    18:00 +19°C° 0 mm 2 mps 684 mmHg 71%
    19:00 +18°C° 0 mm 1 mps 684 mmHg 77%
    20:00 +16°C° 0 mm 1 mps 684 mmHg 81%
    21:00 +15°C° 0 mm 1 mps 684 mmHg 84%
    22:00 +13°C° 0 mm 1 mps 684 mmHg 87%
    23:00 +13°C° 0 mm 1 mps 684 mmHg 88%

    Day after tomorrow, 20 June, Wednesday

    Time Temperature Precipitation Wind Pressure Humidity
    00:00 +12°C° 0 mm 1 mps 684 mmHg 89%
    01:00 +12°C° 0 mm 1 mps 683 mmHg 89%
    02:00 +12°C° 0 mm 1 mps 683 mmHg 90%
    03:00 +12°C° 0 mm 1 mps 683 mmHg 90%
    04:00 +12°C° 0 mm 1 mps 683 mmHg 91%
    05:00 +14°C° 0 mm 1 mps 684 mmHg 84%
    06:00 +16°C° 0 mm 1 mps 685 mmHg 77%
    07:00 +19°C° 0 mm 1 mps 685 mmHg 69%
    08:00 +20°C° 0 mm 1 mps 686 mmHg 64%
    09:00 +21°C° 0 mm 2 mps 686 mmHg 59%
    10:00 +23°C° 0 mm 2 mps 686 mmHg 53%
    11:00 +24°C° 0 mm 2 mps 686 mmHg 52%
    12:00 +24°C° 0 mm 2 mps 686 mmHg 51%
    13:00 +25°C° 0 mm 2 mps 686 mmHg 50%
    14:00 +25°C° 0 mm 2 mps 685 mmHg 53%
    15:00 +24°C° 0 mm 2 mps 685 mmHg 56%
    16:00 +24°C° 0 mm 2 mps 685 mmHg 59%
    17:00 +23°C° 0 mm 1 mps 684 mmHg 66%
    18:00 +21°C° 0 mm 1 mps 684 mmHg 73%
    19:00 +20°C° 0 mm 1 mps 684 mmHg 80%
    20:00 +19°C° 0 mm 1 mps 683 mmHg 84%
    21:00 +16°C° 0 mm 1 mps 683 mmHg 88%
    22:00 +15°C° 0 mm 1 mps 683 mmHg 92%
    23:00 +15°C° 0 mm 1 mps 683 mmHg 92%

    21 June, Thursday

    Time Temperature Precipitation Wind Pressure Humidity
    00:00 +14°C° 0 mm 1 mps 682 mmHg 93%
    01:00 +14°C° 0 mm 1 mps 682 mmHg 93%
    02:00 +14°C° 0 mm 1 mps 682 mmHg 93%
    03:00 +14°C° 0 mm 1 mps 682 mmHg 93%
    04:00 +14°C° 0 mm 1 mps 681 mmHg 92%
    05:00 +16°C° 0 mm 1 mps 682 mmHg 84%
    06:00 +20°C° 0 mm 1 mps 682 mmHg 76%
    07:00 +22°C° 0 mm 1 mps 682 mmHg 68%
    08:00 +23°C° 0 mm 1 mps 682 mmHg 63%
    09:00 +25°C° 0 mm 1 mps 682 mmHg 58%
    10:00 +26°C° 0 mm 2 mps 682 mmHg 53%
    11:00 +26°C° 0.3 mm 2 mps 682 mmHg 53%
    12:00 +26°C° 0.3 mm 2 mps 681 mmHg 54%
    13:00 +27°C° 0.3 mm 2 mps 681 mmHg 54%
    14:00 +26°C° 0.3 mm 2 mps 680 mmHg 57%
    15:00 +26°C° 0.3 mm 2 mps 679 mmHg 59%
    16:00 +25°C° 0.3 mm 2 mps 679 mmHg 62%
    17:00 +24°C° 0.3 mm 2 mps 678 mmHg 69%
    18:00 +21°C° 0.3 mm 2 mps 678 mmHg 76%
    19:00 +20°C° 0.3 mm 2 mps 677 mmHg 83%
    20:00 +19°C° 0.9 mm 2 mps 677 mmHg 85%
    21:00 +18°C° 0.9 mm 2 mps 677 mmHg 88%
    22:00 +17°C° 0.9 mm 2 mps 676 mmHg 90%
    23:00 +17°C° 0.4 mm 2 mps 676 mmHg 91%

    22 June, Friday

    Time Temperature Precipitation Wind Pressure Humidity
    00:00 +17°C° 0.4 mm 2 mps 676 mmHg 91%
    01:00 +16°C° 0.4 mm 1 mps 676 mmHg 92%
    02:00 +16°C° 0.6 mm 2 mps 676 mmHg 93%
    03:00 +16°C° 0.6 mm 2 mps 676 mmHg 94%
    04:00 +15°C° 0.6 mm 2 mps 676 mmHg 96%
    05:00 +15°C° 0.8 mm 2 mps 676 mmHg 95%
    06:00 +13°C° 0.8 mm 3 mps 676 mmHg 95%
    07:00 +13°C° 0.8 mm 3 mps 676 mmHg 95%
    08:00 +12°C° 1.3 mm 3 mps 676 mmHg 95%
    09:00 +11°C° 1.3 mm 3 mps 677 mmHg 94%
    10:00 +10°C° 1.3 mm 3 mps 677 mmHg 94%
    11:00 +10°C° 1.4 mm 3 mps 677 mmHg 91%
    12:00 +9°C° 1.4 mm 3 mps 677 mmHg 88%
    13:00 +9°C° 1.4 mm 3 mps 677 mmHg 85%
    14:00 +9°C° 0.2 mm 3 mps 677 mmHg 85%
    15:00 +8°C° 0.2 mm 3 mps 677 mmHg 84%
    16:00 +8°C° 0.2 mm 3 mps 678 mmHg 83%
    17:00 +7°C° 0.3 mm 3 mps 678 mmHg 85%
    18:00 +7°C° 0.3 mm 2 mps 678 mmHg 88%
    19:00 +6°C° 0.3 mm 2 mps 678 mmHg 90%
    20:00 +6°C° 0.2 mm 2 mps 678 mmHg 90%
    21:00 +5°C° 0.2 mm 2 mps 678 mmHg 90%
    22:00 +5°C° 0.2 mm 2 mps 678 mmHg 91%
    23:00 +4°C° 0 mm 2 mps 678 mmHg 91%

    23 June, Saturday

    Time Temperature Precipitation Wind Pressure Humidity
    00:00 +4°C° 0 mm 2 mps 678 mmHg 91%
    01:00 +3°C° 0 mm 2 mps 678 mmHg 92%
    02:00 +3°C° 0 mm 2 mps 678 mmHg 92%
    03:00 +3°C° 0 mm 2 mps 678 mmHg 92%
    04:00 +4°C° 0 mm 1 mps 678 mmHg 93%
    05:00 +5°C° 0 mm 2 mps 679 mmHg 87%
    06:00 +7°C° 0 mm 2 mps 679 mmHg 82%
    07:00 +8°C° 0 mm 2 mps 680 mmHg 77%
    08:00 +10°C° 0 mm 2 mps 680 mmHg 70%
    09:00 +12°C° 0 mm 2 mps 680 mmHg 62%
    10:00 +12°C° 0 mm 3 mps 680 mmHg 55%
    11:00 +12°C° 0.2 mm 3 mps 680 mmHg 57%
    12:00 +12°C° 0.2 mm 3 mps 680 mmHg 60%
    13:00 +12°C° 0.2 mm 3 mps 680 mmHg 62%
    14:00 +12°C° 0.2 mm 3 mps 680 mmHg 63%
    15:00 +12°C° 0.2 mm 3 mps 680 mmHg 63%
    16:00 +12°C° 0.2 mm 3 mps 680 mmHg 64%
    17:00 +12°C° 0.1 mm 2 mps 680 mmHg 69%
    18:00 +10°C° 0.1 mm 2 mps 679 mmHg 74%
    19:00 +10°C° 0.1 mm 1 mps 679 mmHg 79%
    20:00 +9°C° 0 mm 1 mps 680 mmHg 83%
    21:00 +7°C° 0 mm 1 mps 680 mmHg 86%
    22:00 +6°C° 0 mm 1 mps 680 mmHg 90%
    23:00 +6°C° 0 mm 1 mps 680 mmHg 90%
    Show more